Location: Caltech
(34.1382°N, 118.1253°W)
Time: 06:22:16
(UTC-07:00)

Gbstr 26 Del rocket - Visible Passes

Search period start: 28 June 2016 00:00
Search period end: 08 July 2016 00:00
Orbit: 493 x 1267 km, 51.8° (Epoch: 26 June)

Date Brightness Start Highest point End Pass type
(mag) Time Alt. Az. Time Alt. Az. Time Alt. Az.
28 Jun 3.7 02:51:08 47° NNE 02:51:08 47° NNE 02:53:54 10° NE visible
28 Jun 5.3 04:35:49 10° NW 04:37:24 12° NNW 04:38:57 10° N visible
29 Jun 3.9 02:47:00 42° N 02:47:00 42° N 02:49:46 10° NE visible
30 Jun 4.2 02:42:50 35° N 02:42:50 35° N 02:45:36 10° NNE visible
01 Jul 4.5 02:38:36 29° NNW 02:38:36 29° NNW 02:41:24 10° NNE visible
02 Jul 4.7 02:34:20 24° NNW 02:34:20 24° NNW 02:37:08 10° NNE visible
03 Jul 5.0 02:30:01 20° NNW 02:30:01 20° NNW 02:32:50 10° NNE visible
04 Jul 5.3 02:25:39 16° NW 02:25:57 16° NNW 02:28:29 10° N visible
05 Jul 5.8 00:38:39 11° NE 00:38:39 11° NE 00:38:52 10° NE visible
05 Jul 5.5 02:21:12 13° NW 02:22:02 13° NNW 02:24:03 10° N visible
06 Jul 5.6 00:34:08 14° NE 00:34:08 14° NE 00:34:45 10° NE visible
06 Jul 5.8 02:16:46 10° NW 02:18:07 11° NNW 02:19:26 10° N visible
07 Jul 5.4 00:29:27 18° NNE 00:29:27 18° NNE 00:30:35 10° NNE visible
